Weather Roundup
Issued by NWS Chicago, IL

Home | Current Version | Previous Version | Text Only | Print | Product List | Glossary Off
Versions: 1 2 3 4 5 6 7 8 9 10 11 12 13 14 15 16 17 18 19 20 21 22 23 24 25 26 27 28 29 30 31 32 33 34 35 36 37 38 39 40 41 42 43 44 45 46 47 48 49 50

000
NZUS59 KLOT 051200
HRRLOT

CHICAGO AREA WEATHER ROUNDUP
NATIONAL WEATHER SERVICE CHICAGO/ROMEOVILLE IL
600 AM CST THU MAR 05 2015

NOTE: "FAIR" INDICATES FEW OR NO CLOUDS BELOW 12,000 FEET WITH NO
SIGNIFICANT WEATHER AND/OR OBSTRUCTIONS TO VISIBILITY.

* THESE STATIONS ARE NOT UNDER NWS QUALITY CONTROL. THEY ALSO MAY NOT
  REPORT WEATHER SUCH AS PRECIPITATION OR FOG.

ILZ005-006-012>014-019>023-051300-
NORTHEAST ILLINOIS

CITY           SKY/WX    TMP DP  RH WIND       PRES   REMARKS
OHARE          MOCLDY     5  -8  55 NW10      30.40R WCI -10
6HR MIN TEMP:   4; 6HR MAX TEMP:  10;

MIDWAY         MOCLDY    10  -6  48 NW7       30.41R WCI  -1
6HR MIN TEMP:  10; 6HR MAX TEMP:  14;

AURORA         CLEAR     -1  -9  68 NW3       30.41R
6HR MIN TEMP:  -4; 6HR MAX TEMP:   7;

WAUKEGAN       PTCLDY     0 -10  63 W6        30.40R WCI -12
6HR MIN TEMP:   0; 6HR MAX TEMP:   5;

DUPAGE AIRPORT CLEAR      2  -7  66 NW5       30.39R WCI  -8
6HR MIN TEMP:   0; 6HR MAX TEMP:   9;

WHEELING       PTCLDY     4  -8  57 NW6       30.43R WCI  -7
6HR MIN TEMP:   4; 6HR MAX TEMP:  11;

NORTHERLY IS     N/A     12  -2  53 W9          N/A  WCI   0
$$

WIZ051-052-058>065-066-070>072-051300-
SOUTHEAST WISCONSIN

CITY           SKY/WX    TMP DP  RH WIND       PRES   REMARKS
MILWAUKEE      PTCLDY     4 -10  52 NW3       30.40R
6HR MIN TEMP:   4; 6HR MAX TEMP:   9;

KENOSHA*       PTCLDY    -3 -12  65 NW7       30.40R WCI -16
RACINE*        PTCLDY     2 -11  54 NW8       30.41R WCI -12
WAUKESHA       CLEAR     -2 -11  65 W6        30.40R WCI -14
$$

INZ001>003-010>013-019-020-051300-
NORTHWEST INDIANA

CITY           SKY/WX    TMP DP  RH WIND       PRES   REMARKS
GARY*          CLOUDY    14  -2  48 W12       30.40R WCI   0
MICHIGAN CITY* NOT AVBL
RENSSELAER*    NOT AVBL
$$

LMZ740>746-051300-
SOUTHERN LAKE MICHIGAN

STATION/POSITION TIME  SKY/WX   TEMP WIND        PRES    VSBY
                                AIR  DIR/SP/G
                 (UTC)          (F)  (DEG/KT/KT) (MB)    (MI)
HARRISON CRIB    1100            12  310/ 13/ 17   N/A
BURNHAM HARBOR   1200            12  290/  9/ 10   N/A
CALUMET HARBOR   1100            11  280/  7/ 12 1027.8R
BURNS HARBOR     NOT AVBL
MICHIGAN CITY    1100            16  320/ 10/ 12   N/A
$$

ABBREVIATIONS USED IN REMARKS
   TC - TEMPERATURE IN CELSIUS
  WCI - WIND CHILL INDEX
   HX - HEAT INDEX
  VSB - VISIBILITY
$$



USA.gov is the U.S. government's official web portal to all federal, state and local government web resources and services.